Weather History for Mandan, ND

Change the Weather History Date:

Monday, March 17, 2014

  Actual Average (KBIS) Record (KBIS)
Temperature  
Mean Temperature 39 °F 30 °F  
Max Temperature 46 °F 41 °F 74 °F (2012)
Min Temperature 32 °F 20 °F -25 °F (1875)
Degree Days  
Heating Degree Days 26 35  
Month to date heating degree days 652  
Since 1 July heating degree days 7083  
Cooling Degree Days 0 0  
Month to date cooling degree days 0  
Year to date cooling degree days 0  
Moisture  
Dew Point 34 °F    
Average Humidity 87    
Maximum Humidity 100    
Minimum Humidity 66    
Precipitation  
Precipitation 0.03 in 0.02 in 0.54 in (1972)
Month to date precipitation 0.43  
Year to date precipitation 1.37  
Snow  
Snow 0.00 in 0.30 in 4.50 in (1987)
Month to date snowfall 5.3  
Since 1 July snowfall 42.8  
Snow Depth -    
Sea Level Pressure  
Sea Level Pressure 29.49 in    
Wind  
Wind Speed 6 mph (ENE)    
Max Wind Speed 18 mph    
Max Gust Speed 22 mph    
Visibility 10 miles    
Events Rain    
T = Trace of Precipitation, MM = Missing Value Source: NWS Daily Summary

Daily Weather History Graph

Daily Weather History Graph

Search for Another Location

Airport:

Trip Planner

Search our weather history database for the weather conditions in past years. The results will help you decide how hot, cold, wet, or windy it might be!

Date:

Astronomy

Mar. 17, 2014 Rise Set
Actual Time 7:52 AM CDT 7:52 PM CDT
Civil Twilight 7:22 AM CDT 8:22 PM CDT
Nautical Twilight 6:46 AM CDT 8:57 PM CDT
Astronomical Twilight 6:10 AM CDT 9:34 PM CDT
Moon 9:17 PM CDT (3/17) 8:04 AM CDT (3/17)
Length of Visible Light 13h 00m
Length of Day
11h 59m
Full, 99% of the Moon is Illuminated
Mar 17
Full
Mar 23
Last Quarter
Mar 30
New
Apr 7
First Quarter
Apr 15
Full

Hourly Weather History & Observations

Time (CDT) Temp. Windchill Dew Point Humidity Pressure Visibility Wind Dir Wind Speed Gust Speed Precip Events Conditions
12:15 AM 37.4 °F - 32.0 °F 81% 29.62 in 10.0 mi Calm Calm - N/A   Overcast
12:35 AM 37.4 °F 32.8 °F 32.0 °F 81% 29.62 in 10.0 mi West 5.8 mph - N/A   Overcast
12:55 AM 35.6 °F 29.2 °F 33.8 °F 93% 29.62 in 8.0 mi WSW 8.1 mph - N/A Rain Light Rain
1:15 AM 39.2 °F 35.0 °F 35.6 °F 87% 29.62 in 7.0 mi WNW 5.8 mph - N/A Rain Light Rain
1:35 AM 39.2 °F 33.6 °F 35.6 °F 87% 29.61 in 10.0 mi NW 8.1 mph - 0.01 in   Overcast
1:55 AM 39.2 °F 35.9 °F 35.6 °F 87% 29.61 in 10.0 mi NW 4.6 mph - 0.01 in   Overcast
2:15 AM 37.4 °F - 35.6 °F 93% 29.60 in 10.0 mi Calm Calm - N/A   Overcast
2:35 AM 37.4 °F 34.9 °F 35.6 °F 93% 29.59 in 10.0 mi WNW 3.5 mph - N/A   Overcast
2:55 AM 35.6 °F - 33.8 °F 93% 29.57 in 10.0 mi Calm Calm - N/A   Mostly Cloudy
3:15 AM 35.6 °F 32.8 °F 33.8 °F 93% 29.56 in 10.0 mi NW 3.5 mph - N/A   Mostly Cloudy
3:35 AM 35.6 °F 31.7 °F 32.0 °F 87% 29.55 in 10.0 mi North 4.6 mph - N/A   Mostly Cloudy
3:55 AM 35.6 °F - 32.0 °F 87% 29.55 in 10.0 mi Calm Calm - N/A   Partly Cloudy
4:15 AM 35.6 °F - 32.0 °F 87% 29.53 in 10.0 mi Calm Calm - N/A   Mostly Cloudy
4:35 AM 37.4 °F - 33.8 °F 87% 29.52 in 10.0 mi Calm Calm - N/A   Partly Cloudy
4:55 AM 37.4 °F - 32.0 °F 81% 29.50 in 10.0 mi Calm Calm - N/A   Scattered Clouds
5:15 AM 35.6 °F 32.8 °F 32.0 °F 87% 29.50 in 10.0 mi SW 3.5 mph - N/A   Mostly Cloudy
5:35 AM 32.0 °F 27.5 °F 32.0 °F 100% 29.49 in 10.0 mi WSW 4.6 mph - N/A   Partly Cloudy
5:55 AM 32.0 °F 27.5 °F 32.0 °F 100% 29.49 in 10.0 mi WSW 4.6 mph - N/A   Clear
6:15 AM 33.8 °F 28.6 °F 32.0 °F 93% 29.49 in 10.0 mi WSW 5.8 mph - N/A   Clear
6:35 AM 33.8 °F 29.6 °F 32.0 °F 93% 29.48 in 10.0 mi West 4.6 mph - N/A   Clear
6:55 AM 35.6 °F 31.7 °F 32.0 °F 87% 29.46 in 10.0 mi WSW 4.6 mph - N/A   Clear
7:15 AM 35.6 °F 32.8 °F 32.0 °F 87% 29.45 in 10.0 mi WSW 3.5 mph - N/A   Clear
7:35 AM 35.6 °F - 32.0 °F 87% 29.45 in 10.0 mi Calm Calm - N/A   Clear
7:55 AM 35.6 °F 32.8 °F 32.0 °F 87% 29.45 in 10.0 mi SW 3.5 mph - N/A   Scattered Clouds
8:15 AM 35.6 °F 32.8 °F 32.0 °F 87% 29.45 in 10.0 mi SE 3.5 mph - N/A   Partly Cloudy
8:35 AM 33.8 °F 30.8 °F 32.0 °F 93% 29.45 in 10.0 mi South 3.5 mph - N/A   Clear
8:55 AM 32.0 °F - 32.0 °F 100% 29.45 in 10.0 mi Calm Calm - N/A   Partly Cloudy
9:15 AM 32.0 °F - 32.0 °F 100% 29.45 in 10.0 mi Calm Calm - N/A   Scattered Clouds
9:35 AM 35.6 °F 30.7 °F 33.8 °F 93% 29.45 in 10.0 mi North 5.8 mph - N/A   Scattered Clouds
9:55 AM 37.4 °F 34.9 °F 35.6 °F 93% 29.44 in 10.0 mi NNE 3.5 mph - N/A   Partly Cloudy
10:15 AM 39.2 °F 37.0 °F 37.4 °F 93% 29.44 in 10.0 mi East 3.5 mph - N/A   Clear
10:35 AM 39.2 °F 35.0 °F 37.4 °F 93% 29.43 in 10.0 mi ENE 5.8 mph - N/A   Clear
10:55 AM 39.2 °F 34.2 °F 37.4 °F 93% 29.43 in 10.0 mi ENE 6.9 mph - N/A   Clear
11:15 AM 41.0 °F 37.1 °F 37.4 °F 87% 29.43 in 10.0 mi East 5.8 mph - N/A   Clear
11:35 AM 39.2 °F 35.0 °F 37.4 °F 93% 29.43 in 10.0 mi East 5.8 mph - N/A   Clear
11:55 AM 39.2 °F 33.6 °F 35.6 °F 87% 29.42 in 10.0 mi ENE 8.1 mph - N/A   Clear
12:15 PM 41.0 °F 36.4 °F 37.4 °F 87% 29.42 in 10.0 mi NE 6.9 mph - N/A   Partly Cloudy
12:35 PM 41.0 °F 35.2 °F 37.4 °F 87% 29.41 in 10.0 mi ENE 9.2 mph - N/A   Clear
12:55 PM 42.8 °F 36.2 °F 37.4 °F 81% 29.40 in 10.0 mi ENE 12.7 mph - N/A   Partly Cloudy
1:15 PM 44.6 °F 38.1 °F 37.4 °F 76% 29.39 in 10.0 mi East 13.8 mph - N/A   Partly Cloudy
1:35 PM 44.6 °F 38.4 °F 35.6 °F 71% 29.39 in 10.0 mi East 12.7 mph 18.4 mph N/A   Scattered Clouds
1:55 PM 46.4 °F 41.1 °F 35.6 °F 66% 29.40 in 10.0 mi East 11.5 mph - N/A   Mostly Cloudy
2:15 PM 46.4 °F 41.1 °F 35.6 °F 66% 29.41 in 10.0 mi ENE 11.5 mph - N/A   Partly Cloudy
2:35 PM 46.4 °F 41.1 °F 35.6 °F 66% 29.41 in 10.0 mi East 11.5 mph - N/A   Mostly Cloudy
2:55 PM 46.4 °F 40.7 °F 35.6 °F 66% 29.41 in 10.0 mi East 12.7 mph - N/A   Mostly Cloudy
3:15 PM 44.6 °F 39.2 °F 35.6 °F 71% 29.41 in 10.0 mi ENE 10.4 mph - N/A   Scattered Clouds
3:35 PM 44.6 °F 38.8 °F 35.6 °F 71% 29.41 in 10.0 mi NE 11.5 mph - N/A   Mostly Cloudy
3:55 PM 44.6 °F 37.4 °F 35.6 °F 71% 29.41 in 10.0 mi NE 16.1 mph 19.6 mph N/A   Mostly Cloudy
4:15 PM 42.8 °F 34.5 °F 35.6 °F 76% 29.42 in 10.0 mi NE 18.4 mph - N/A   Mostly Cloudy
4:35 PM 41.0 °F 32.8 °F 35.6 °F 81% 29.43 in 10.0 mi NE 16.1 mph 21.9 mph N/A   Scattered Clouds
4:55 PM 39.2 °F 30.2 °F 35.6 °F 87% 29.44 in 10.0 mi NE 17.3 mph - N/A   Scattered Clouds
5:15 PM 39.2 °F 30.5 °F 35.6 °F 87% 29.45 in 5.0 mi ENE 16.1 mph - N/A Rain Light Rain
5:35 PM 37.4 °F 29.8 °F 35.6 °F 93% 29.46 in 4.0 mi ENE 11.5 mph - 0.01 in Rain Light Rain
5:55 PM 37.4 °F 30.3 °F 35.6 °F 93% 29.47 in 5.0 mi ENE 10.4 mph - 0.02 in Rain Light Rain
6:15 PM 37.4 °F 31.4 °F 35.6 °F 93% 29.47 in 8.0 mi East 8.1 mph - N/A Rain Light Rain
6:35 PM 37.4 °F 31.4 °F 35.6 °F 93% 29.47 in 10.0 mi East 8.1 mph - N/A   Mostly Cloudy
6:55 PM 37.4 °F 30.8 °F 35.6 °F 93% 29.48 in 10.0 mi East 9.2 mph - N/A   Overcast
7:15 PM 37.4 °F 32.8 °F 35.6 °F 93% 29.49 in 10.0 mi East 5.8 mph - N/A   Mostly Cloudy
7:35 PM 37.4 °F 30.8 °F 35.6 °F 93% 29.51 in 10.0 mi NE 9.2 mph - N/A   Mostly Cloudy
7:55 PM 37.4 °F 30.3 °F 35.6 °F 93% 29.50 in 10.0 mi East 10.4 mph - N/A   Overcast
8:15 PM 37.4 °F 31.4 °F 35.6 °F 93% 29.52 in 10.0 mi NNE 8.1 mph - N/A   Overcast
8:35 PM 37.4 °F 30.8 °F 35.6 °F 93% 29.53 in 10.0 mi NE 9.2 mph - N/A   Overcast
8:55 PM 35.6 °F 29.2 °F 33.8 °F 93% 29.53 in 10.0 mi NE 8.1 mph - N/A   Overcast
9:15 PM 37.4 °F 32.1 °F 33.8 °F 87% 29.54 in 10.0 mi NE 6.9 mph - N/A   Overcast
9:35 PM 37.4 °F 30.8 °F 32.0 °F 81% 29.56 in 10.0 mi ENE 9.2 mph - N/A   Overcast
9:55 PM 35.6 °F 29.2 °F 32.0 °F 87% 29.57 in 10.0 mi NE 8.1 mph - N/A   Overcast
10:15 PM 35.6 °F 29.9 °F 32.0 °F 87% 29.59 in 10.0 mi ENE 6.9 mph - N/A   Overcast
10:35 PM 35.6 °F 28.0 °F 32.0 °F 87% 29.60 in 10.0 mi ENE 10.4 mph - N/A   Overcast
10:55 PM 35.6 °F 27.1 °F 32.0 °F 87% 29.61 in 10.0 mi ENE 12.7 mph - N/A   Overcast
11:15 PM 33.8 °F 24.3 °F 32.0 °F 93% 29.62 in 10.0 mi ENE 13.8 mph - N/A   Overcast
11:35 PM 33.8 °F 24.3 °F 32.0 °F 93% 29.63 in 10.0 mi ENE 13.8 mph - N/A   Overcast
11:55 PM 33.8 °F 26.4 °F 32.0 °F 93% 29.64 in 10.0 mi ENE 9.2 mph - N/A   Overcast